Find Starlink 37124

NORAD ID: 68283 Int'l Des: 2026-055 Owner: SPXS Country: US Constellation: starlink operational
LEOCIRCULAR

当前视图

正在加载3D地球...

About Starlink 37124

Starlink 37124 (NORAD 68283) is a starlink constellation satellite (v2 mini) launched Mar 19, 2026 by SPXS of US. It operates in LEO, CIRCULAR orbit with a mass of 575.00 kg.

关于 Starlink 37124

正在加载描述...

即将过境

Passes for default location (London). Set your location on the main map for personalized predictions.

高度历史

Loading altitude history...

两行轨道根数

1 68283U 26055X 26169.49534370 .00013105 00000-0 39840-3 0 9991
2 68283 53.1577 211.1077 0001458 93.7044 266.4125 15.34393276 15365
Epoch: Jun 18, 2026 • Age: 11 hours

当前状态

高度 468.0 km
速度 7.63 km/s
星下点 -17.76°S, 53.01°W
发射日期 Mar 19, 2026
运行时间 0.2 years
类型 internet

技术详情

分类 Payload
质量 575.00 kg
干质量 530.00 kg
总质量 575.00 kg
长度 0.30 m
直径 4.10 m
跨度 29.00 m
形状 Box + pan
制造商 SPXS
平台类型 Starlink V2MO
阶段状态 In Orbit
所有者/国家 SPXS/US

Most Searched